Flag for Germany Weather past 2 weeks in Bautzen, Saxony, Germany

Now
33 °F

Fog.


Feels Like: 33 °F
Forecast: 35 / 49 °F
Wind: 2 mph from West

Location: Goerlitz

Current Time: Mar 6, 2015 at 5:05:05 AM

Latest Report: Mar 6, 2015 at 4:00 AM


Visibility: 4 mi

Pressure: 30.58 "Hg

Humidity: 100%

Dew point: 33 °F

Location of BautzenLocation

Historic Weather in Bautzen — Graph

°F

Bautzen temperature yesterday

Maximum temperature yesterday: 42 °F (at 4:00 PM)
Minimum temperature yesterday: 34 °F (at 5:00 AM)
Average temperature yesterday: 37 °F

Past Weeks' High & Low Weather Summary

 TemperatureHumidityPressure
High47 °F (Feb 24, 3:00 PM)100% (Feb 26, 6:00 AM)30.58 "Hg (Feb 26, 6:00 AM)
Low26 °F (Feb 26, 7:00 AM)47% (Mar 2, 3:00 PM)29.47 "Hg (Feb 21, 4:00 PM)
Average37 °F80%29.97 "Hg
* Reported Feb 19 4:00 AM — Mar 6 4:00 AM, Bautzen, Weather by CustomWeather, © 2015

Note: Actual official high and low records may vary slightly from our data, if they occured in-between our weather recording intervals... More about our weather records

Advertising

Bautzen weather history for previous 24 hours

 ConditionsComfort  
Time TempWeatherWind HumidityBarometerVisibility
4:00 AM
Fri, Mar 6
33 °FFog.2 mph100%30.58 "Hg4 mi
3:00 AM32 °FPassing clouds.2 mph100%30.58 "Hg14 mi
2:00 AM33 °FPassing clouds.2 mph99%30.58 "Hg14 mi
1:00 AM34 °FPassing clouds.1 mph96%30.57 "Hg14 mi
12:00 AM34 °FPassing clouds.2 mph96%30.57 "Hg14 mi
10:00 PM
Thu, Mar 5
35 °FOvercast.2 mph92%30.56 "Hg17 mi
9:00 PM36 °FOvercast.2 mph77%30.55 "Hg17 mi
8:00 PM34 °FOvercast.2 mph83%30.53 "Hg16 mi
7:00 PM35 °FPassing clouds.1 mph81%30.53 "Hg16 mi
6:00 PM38 °FPassing clouds.5 mph75%30.51 "Hg28 mi
5:00 PM40 °FOvercast.3 mph66%30.49 "Hg40 mi
4:00 PM42 °FPartly sunny.5 mph58%30.48 "Hg37 mi
3:00 PM42 °FPartly sunny.6 mph55%30.47 "Hg34 mi
2:00 PM41 °FScattered clouds.5 mph63%30.47 "Hg25 mi
1:00 PM38 °FPartly sunny.5 mph81%30.47 "Hg19 mi
12:00 PM38 °FPartly sunny.5 mph83%30.47 "Hg11 mi
11:00 AM37 °FLow clouds.3 mph93%30.45 "Hg7 mi
10:00 AM36 °FLight rain. Low clouds.3 mph96%30.44 "Hg2 mi
9:00 AM35 °FLow clouds.3 mph97%30.42 "Hg4 mi
8:00 AM35 °FLight rain. Low clouds.2 mph98%30.41 "Hg3 mi
7:00 AM35 °FLow clouds.3 mph97%30.38 "Hg6 mi
6:00 AM35 °FLow clouds.5 mph96%30.36 "Hg6 mi
5:00 AM34 °FLow clouds.3 mph97%30.35 "Hg6 mi
Weather by CustomWeather, © 2015

See weather overviewHow to use our weather pages